| time (UTC) | temp C | wind direction | speed KPH | gust KPH | rain 1hr cm | rain 24hr cm | rain mn cm | humidity % | barometer mb |
| 20260505071015 | 14 | 44 | 12.9 | 29.0 | 0.00 | 0.00 | 0.00 | 46 | 1009.9 |
| 20260505070055 | 14 | 45 | 17.7 | 32.2 | 0.00 | 0.00 | 0.00 | 46 | 1009.9 |
| 20260505065035 | 14 | 47 | 14.5 | 30.6 | 0.00 | 0.00 | 0.00 | 46 | 1009.7 |
| 20260505064015 | 14 | 50 | 12.9 | 27.4 | 0.00 | 0.00 | 0.00 | 45 | 1009.6 |
| 20260505063015 | 14 | 46 | 16.1 | 38.6 | 0.00 | 0.00 | 0.00 | 45 | 1009.2 |
| 20260505062015 | 15 | 51 | 16.1 | 35.4 | 0.00 | 0.00 | 0.00 | 44 | 1009.0 |
| 20260505061016 | 15 | 53 | 16.1 | 33.8 | 0.00 | 0.00 | 0.00 | 44 | 1009.1 |
| 20260505060016 | 15 | 50 | 16.1 | 35.4 | 0.00 | 0.00 | 0.00 | 43 | 1009.2 |
| 20260505055017 | 15 | 51 | 16.1 | 32.2 | 0.00 | 0.00 | 0.00 | 43 | 1009.1 |
| 20260505054017 | 15 | 56 | 16.1 | 33.8 | 0.00 | 0.00 | 0.00 | 43 | 1008.8 |
| 20260505053016 | 16 | 57 | 16.1 | 35.4 | 0.00 | 0.00 | 0.00 | 43 | 1008.6 |
| 20260505052016 | 16 | 46 | 14.5 | 37.0 | 0.00 | 0.00 | 0.00 | 43 | 1008.3 |
| 20260505051016 | 16 | 50 | 19.3 | 37.0 | 0.00 | 0.00 | 0.00 | 44 | 1008.2 |
| 20260505041036 | 19 | 36 | 24.1 | 51.5 | 0.00 | 0.00 | 0.00 | 38 | 1006.8 |
| 20260505040016 | 21 | 42 | 22.5 | 43.5 | 0.00 | 0.00 | 0.00 | 32 | 1006.3 |
| 20260505035016 | 21 | 34 | 11.3 | 35.4 | 0.00 | 0.00 | 0.00 | 30 | 1005.8 |
| 20260505034016 | 21 | 26 | 14.5 | 30.6 | 0.00 | 0.00 | 0.00 | 29 | 1005.3 |
| 20260505033016 | 21 | 53 | 14.5 | 35.4 | 0.00 | 0.00 | 0.00 | 28 | 1004.8 |
| 20260505032016 | 22 | 47 | 16.1 | 30.6 | 0.00 | 0.00 | 0.00 | 27 | 1004.5 |
| 20260505031056 | 22 | 42 | 17.7 | 37.0 | 0.00 | 0.00 | 0.00 | 25 | 1004.5 |
| 20260505030016 | 22 | 24 | 9.7 | 30.6 | 0.00 | 0.00 | 0.00 | 24 | 1004.4 |
| 20260505025016 | 23 | 19 | 6.4 | 22.5 | 0.00 | 0.00 | 0.00 | 23 | 1003.9 |
| 20260505024036 | 23 | 13 | 11.3 | 29.0 | 0.00 | 0.00 | 0.00 | 22 | 1003.5 |
| 20260505023016 | 23 | 5 | 9.7 | 27.4 | 0.00 | 0.00 | 0.00 | 22 | 1003.3 |
| 20260505022016 | 23 | 359 | 11.3 | 24.1 | 0.00 | 0.00 | 0.00 | 22 | 1003.0 |
| 20260505021016 | 24 | 350 | 11.3 | 24.1 | 0.00 | 0.00 | 0.00 | 21 | 1002.7 |
| 20260505020016 | 25 | 358 | 12.9 | 32.2 | 0.00 | 0.00 | 0.00 | 20 | 1002.4 |
| 20260505015016 | 25 | 348 | 4.8 | 14.5 | 0.00 | 0.00 | 0.00 | 19 | 1002.1 |
| 20260505014016 | 25 | 348 | 8.0 | 16.1 | 0.00 | 0.00 | 0.00 | 19 | 1001.8 |
| 20260505013016 | 25 | 358 | 8.0 | 22.5 | 0.00 | 0.00 | 0.00 | 19 | 1001.9 |
| 20260505012016 | 25 | 336 | 9.7 | 20.9 | 0.00 | 0.00 | 0.00 | 19 | 1001.5 |
| 20260505011016 | 26 | 0.0 | 0.0 | 0.00 | 0.00 | 0.00 | 20 | 1001.4 | |
| 20260505010016 | 26 | 0.0 | 0.0 | 0.00 | 0.00 | 0.00 | 21 | 1001.3 | |
| 20260505005016 | 26 | 0.0 | 0.0 | 0.00 | 0.00 | 0.00 | 19 | 1001.5 | |
| 20260505004016 | 26 | 0.0 | 0.0 | 0.00 | 0.00 | 0.00 | 19 | 1001.6 | |
| 20260505003015 | 26 | 0.0 | 0.0 | 0.00 | 0.00 | 0.00 | 17 | 1001.7 | |
| 20260505002016 | 27 | 360 | 0.0 | 4.8 | 0.00 | 0.00 | 0.00 | 17 | 1001.8 |
| 20260505001036 | 27 | 360 | 1.6 | 4.8 | 0.00 | 0.00 | 0.00 | 18 | 1001.8 |
| 20260505000015 | 27 | 360 | 4.8 | 9.7 | 0.00 | 0.00 | 0.00 | 17 | 1001.8 |
| 20260504235015 | 27 | 251 | 3.2 | 8.0 | 0.00 | 0.00 | 0.00 | 16 | 1002.0 |
| 20260504234016 | 27 | 275 | 1.6 | 4.8 | 0.00 | 0.00 | 0.00 | 17 | 1001.7 |
| 20260504233015 | 27 | 271 | 1.6 | 6.4 | 0.00 | 0.00 | 0.00 | 17 | 1001.8 |
| 20260504232015 | 27 | 256 | 1.6 | 8.0 | 0.00 | 0.00 | 0.00 | 17 | 1001.9 |
| 20260504231015 | 27 | 0.0 | 6.4 | 0.00 | 0.00 | 0.00 | 16 | 1001.5 | |
| 20260504230036 | 28 | 229 | 3.2 | 9.7 | 0.00 | 0.00 | 0.00 | 16 | 1001.6 |
| 20260504225015 | 27 | 320 | 3.2 | 6.4 | 0.00 | 0.00 | 0.00 | 16 | 1001.6 |
| 20260504224015 | 28 | 267 | 8.0 | 20.9 | 0.00 | 0.00 | 0.00 | 16 | 1002.0 |
| 20260504223015 | 28 | 243 | 3.2 | 9.7 | 0.00 | 0.00 | 0.00 | 16 | 1002.0 |
| 20260504222015 | 28 | 244 | 1.6 | 6.4 | 0.00 | 0.00 | 0.00 | 16 | 1002.2 |
| 20260504221015 | 27 | 247 | 4.8 | 14.5 | 0.00 | 0.00 | 0.00 | 15 | 1002.2 |
| 20260504220015 | 28 | 255 | 6.4 | 16.1 | 0.00 | 0.00 | 0.00 | 15 | 1002.3 |
| 20260504215015 | 28 | 247 | 8.0 | 16.1 | 0.00 | 0.00 | 0.00 | 15 | 1002.4 |
| 20260504214015 | 28 | 175 | 3.2 | 9.7 | 0.00 | 0.00 | 0.00 | 16 | 1002.5 |
| 20260504213015 | 28 | 150 | 6.4 | 16.1 | 0.00 | 0.00 | 0.00 | 15 | 1002.6 |
| 20260504212035 | 28 | 53 | 4.8 | 11.3 | 0.00 | 0.00 | 0.00 | 15 | 1003.1 |
| 20260504211015 | 28 | 34 | 3.2 | 8.0 | 0.00 | 0.00 | 0.00 | 15 | 1003.3 |
| 20260504210016 | 27 | 328 | 3.2 | 8.0 | 0.00 | 0.00 | 0.00 | 15 | 1003.6 |
| 20260504205035 | 28 | 312 | 6.4 | 16.1 | 0.00 | 0.00 | 0.00 | 16 | 1003.7 |
| 20260504204016 | 28 | 267 | 8.0 | 19.3 | 0.00 | 0.00 | 0.00 | 15 | 1003.9 |
| 20260504203035 | 28 | 262 | 4.8 | 16.1 | 0.00 | 0.00 | 0.00 | 15 | 1003.8 |
| 20260504202035 | 28 | 345 | 4.8 | 14.5 | 0.00 | 0.00 | 0.00 | 15 | 1003.9 |
| 20260504201015 | 28 | 313 | 6.4 | 14.5 | 0.00 | 0.00 | 0.00 | 14 | 1004.0 |
| 20260504200015 | 28 | 229 | 4.8 | 11.3 | 0.00 | 0.00 | 0.00 | 15 | 1004.1 |
| 20260504195015 | 27 | 248 | 8.0 | 17.7 | 0.00 | 0.00 | 0.00 | 16 | 1004.1 |
| 20260504194015 | 28 | 295 | 3.2 | 11.3 | 0.00 | 0.00 | 0.00 | 16 | 1004.2 |
| 20260504193015 | 27 | 1 | 1.6 | 6.4 | 0.00 | 0.00 | 0.00 | 17 | 1004.3 |
| 20260504192015 | 27 | 290 | 6.4 | 14.5 | 0.00 | 0.00 | 0.00 | 17 | 1004.5 |
| 20260504191035 | 27 | 270 | 8.0 | 19.3 | 0.00 | 0.00 | 0.00 | 18 | 1004.6 |
| 20260504190035 | 26 | 276 | 8.0 | 16.1 | 0.00 | 0.00 | 0.00 | 20 | 1004.8 |
| 20260504185015 | 26 | 266 | 6.4 | 22.5 | 0.00 | 0.00 | 0.00 | 21 | 1004.8 |
| 20260504184015 | 26 | 259 | 9.7 | 17.7 | 0.00 | 0.00 | 0.00 | 20 | 1005.5 |
| 20260504183015 | 26 | 273 | 6.4 | 24.1 | 0.00 | 0.00 | 0.00 | 22 | 1005.7 |
| 20260504182015 | 26 | 294 | 8.0 | 19.3 | 0.00 | 0.00 | 0.00 | 22 | 1005.9 |
| 20260504181014 | 26 | 280 | 8.0 | 20.9 | 0.00 | 0.00 | 0.00 | 22 | 1006.0 |
| 20260504180015 | 26 | 293 | 8.0 | 20.9 | 0.00 | 0.00 | 0.00 | 22 | 1006.1 |
| 20260504175016 | 25 | 283 | 8.0 | 24.1 | 0.00 | 0.00 | 0.00 | 23 | 1006.2 |
| 20260504174015 | 25 | 270 | 11.3 | 20.9 | 0.00 | 0.00 | 0.00 | 23 | 1006.4 |
| 20260504173015 | 25 | 264 | 12.9 | 24.1 | 0.00 | 0.00 | 0.00 | 23 | 1006.7 |
| 20260504172014 | 25 | 268 | 12.9 | 24.1 | 0.00 | 0.00 | 0.00 | 24 | 1006.9 |
| 20260504171015 | 24 | 257 | 11.3 | 24.1 | 0.00 | 0.00 | 0.00 | 24 | 1007.0 |
| 20260504151017 | 19 | 260 | 6.4 | 16.1 | 0.00 | 0.00 | 0.00 | 33 | 1008.1 |
| 20260504141016 | 13 | 263 | 6.4 | 14.5 | 0.00 | 0.00 | 0.00 | 49 | 1008.1 |
| 20260504081015 | 8 | 0.0 | 0.0 | 0.00 | 0.00 | 0.00 | 53 | 1008.4 |